Regional Weather Roundup
Issued by NWS

Home | Current Version | Previous Version | Text Only | Print | Product List | Glossary Off
Versions: 1 2 3 4 5 6 7 8 9 10 11 12 13 14 15 16 17 18 19 20 21 22 23 24 25 26 27 28 29 30 31 32 33 34 35 36 37 38 39 40 41 42 43 44 45 46 47 48 49 50

000
ASUS43 KLMK 231102
RWRKY
KENTUCKY REGIONAL WEATHER ROUNDUP
NATIONAL WEATHER SERVICE LOUISVILLE KY
700 AM EDT SUN JUL 23 2017

NOTE "FAIR" INDICATES FEW OR NO CLOUDS BELOW 12,000 FEET
WITH NO SIGNIFICANT WEATHER AND/OR OBSTRUCTIONS TO VISIBILITY.

KYZ001>023-026-027-061>063-070>075-231200-
WESTERN AND SOUTH CENTRAL KENTUCKY

CITY           SKY/WX    TMP DP  RH WIND       PRES   REMARKS
PADUCAH        CLOUDY    80  74  81 SW9       29.84R
HENDERSON      TSTM      74  73  97 NE10      29.85R FOG
OWENSBORO      CLOUDY    73  70  90 E6        29.86R
HOPKINSVILLE   CLEAR     76  74  92 SW10      29.87R
BOWLING GREEN  CLOUDY    79  76  90 CALM      29.90F
GLASGOW        NOT AVBL
$$

KYZ024-025-028>034-038-045-046-053-231200-
NORTH CENTRAL KENTUCKY

CITY           SKY/WX    TMP DP  RH WIND       PRES   REMARKS
LOUISVILLE/SDF TSTM      74  69  85 SW10      29.83F
LOUISVILLE/LOU LGT RAIN  74  69  85 MISG      29.85F
FORT KNOX      LGT RAIN  71  69  94 SE6       29.84F
$$

KYZ035>037-039>044-047>052-055>060-089>105-231200-
NORTHEAST KENTUCKY

CITY           SKY/WX    TMP DP  RH WIND       PRES   REMARKS
LEXINGTON      LGT RAIN  72  69  90 S5        29.89F
COVINGTON      CLOUDY    71  71 100 SW7       29.84S
FRANKFORT      LGT RAIN  76  62  62 W13G22    29.88S
$$

KYZ054-064>069-076>088-106>120-231200-
SOUTHEAST KENTUCKY

CITY           SKY/WX    TMP DP  RH WIND       PRES   REMARKS
JACKSON        TSTM      68  67  96 S3        29.96F VSB 1/2
LONDON         CLOUDY    77  68  73 N7G17     29.96R
SOMERSET       CLOUDY    75  68  78 E7        29.94S
MIDDLESBORO    PTCLDY    73  73 100 CALM      29.96R
MONTICELLO     LGT RAIN  77  75  93 W10       29.96R
$$





USA.gov is the U.S. government's official web portal to all federal, state and local government web resources and services.